Regional Weather Roundup
Issued by NWS

Home | Current Version | Previous Version | Text Only | Print | Product List | Glossary On
Versions: 1 2 3 4 5 6 7 8 9 10 11 12 13 14 15 16 17 18 19 20 21 22 23 24 25 26 27 28 29 30 31 32 33 34 35 36 37 38 39 40 41 42 43 44 45 46 47 48 49 50
000
ASUS45 KCYS 021010
RWRWY

WYOMING REGIONAL WEATHER ROUNDUP
NATIONAL WEATHER SERVICE CHEYENNE WY
400 AM MDT THU APR 02 2015

NOTE:  "FAIR" INDICATES FEW OR NO CLOUDS BELOW 12,000 FEET
WITH NO SIGNIFICANT WEATHER AND/OR OBSTRUCTIONS TO VISIBILITY.

WYZ001-021100-
YELLOWSTONE NATIONAL PARK

CITY           SKY/WX    TMP DP  RH WIND       PRES   REMARKS
LK YELLOWSTONE   N/A     12   9  87 N3        29.96F
W YELLOWSTONE  NOT AVBL

$$
WYZ002>013-054>058-071-098>099-021100-
NORTHERN WYOMING

CITY           SKY/WX    TMP DP  RH WIND       PRES   REMARKS
JACKSON        FAIR      23  21  93 E3        29.98R
CODY           FAIR      30  12  47 CALM      29.95S
GREYBULL       FAIR      32  16  51 SE3       29.96F
WORLAND        CLOUDY    33  19  56 CALM      29.96S
SHERIDAN       FAIR      30  11  45 W12       29.95R WCI  20
BUFFALO        FAIR      32  11  41 N3        29.93S
GILLETTE       FAIR      30  11  45 NW7       29.93S WCI  23
HULETT         FAIR      32  14  47 SW8       29.91S WCI  25
NEWCASTLE      FAIR      27  14  59 NW3       29.93S

$$
WYZ014>020-022>026-101>103-021100-
CENTRAL WYOMING

CITY           SKY/WX    TMP DP  RH WIND       PRES   REMARKS
BIG PINEY      FAIR      19   3  49 S3        29.96R
PINEDALE       PTSUNNY   19  14  79 CALM      29.95S
DUBOIS         FAIR      19  10  68 NW7       29.92S WCI  10
LANDER         FAIR      24  10  55 SE6       29.93S WCI  17
RIVERTON       FAIR      31  11  43 W10       29.94R WCI  22
CASPER         FAIR      27  17  66 NW8       29.93S WCI  19
DOUGLAS        FAIR      30  19  63 W3        29.93F

$$
WYZ021-027>030-104>119-021100-
SOUTHERN WYOMING

CITY           SKY/WX    TMP DP  RH WIND       PRES   REMARKS
EVANSTON       CLOUDY    29   5  36 CALM      29.95F
FORT BRIDGER   CLOUDY    30   5  34 W3        29.98F
ROCK SPRINGS   CLOUDY    28   5  37 NW5       29.95F WCI  23
DIXON          PTSUNNY   32  11  41 NE3       29.95F
RAWLINS        MOCLDY    32   6  33 W5        29.93F WCI  27
SARATOGA       PTSUNNY   32   5  32 MISG      29.93S
LARAMIE        FAIR      29   6  38 SW6       29.90F WCI  23
CHEYENNE       FAIR      29  22  75 NW3       29.93F
TORRINGTON     FAIR      27  20  75 CALM      29.93S
PINE BLUFFS    FAIR      23  19  86 W3        29.95F

$$



USA.gov is the U.S. government's official web portal to all federal, state and local government web resources and services.